ELEKTRO-L 1 (GOMS 2)

Last updated on Sept. 4, 2017, 12:17 a.m. UTC

1 37344U 11001A   17246.09076992 -.00000267  00000-0  00000+0 0  9991
2 37344   2.5923  77.6536 0003192 282.9318 302.8841  1.00173080 24288
UTC
Height (km)
Latitude
Longitude
Inclination
Orbital Period
UTC large
Height (km)
Speed (km/s)
/
Latitude / Longitude
Inclination (degrees)
Orbital Period (minutes)
Azimuth
Elevation
Range (km)
Doppler Factor
iOS Compass Heading
iOS Angle